Wind_Speed
4 5 5 6 6 6 6 6 7 7 7 7 7 7 7 6 6 6 7 7 7 7 6 6 5 5 5 4 4 4 4 4 4 4 4 5 6 6 6 6 7 7 7
4 5 6 6 6 6 6 6 6 6 6 6 7 6 6 6 6 6 6 6 6 6 6 6 6 5 5 4 4 4 3 3 4 4 4 5 6 6 6 6 6 6 7
4 5 6 7 7 7 6 6 6 6 5 5 5 5 5 5 5 5 6 6 6 6 6 6 6 5 5 4 4 3 3 2 3 4 4 4 5 5 5 6 6 7 7
5 6 7 8 8 7 6 6 5 5 4 4 4 4 5 5 5 5 6 6 6 6 6 6 6 5 4 4 3 3 3 3 3 3 3 4 5 5 5 6 6 6 6
4 6 8 9 8 8 7 6 6 5 4 3 3 3 4 4 5 5 5 5 5 6 6 5 5 4 4 3 3 3 3 3 3 3 3 4 5 5 6 6 6 6 6
4 7 9 10 9 9 8 8 7 5 4 3 2 2 3 4 4 5 5 5 5 5 5 5 4 4 3 2 2 2 3 2 2 3 3 4 4 5 5 5 5 6 6
4 7 9 10 11 10 10 9 8 6 5 3 2 1 2 3 4 4 5 5 5 5 5 5 4 4 3 2 2 1 2 2 2 2 3 4 4 5 5 5 5 5 5
5 8 10 11 12 11 11 10 9 7 6 4 3 1 1 2 3 4 4 5 5 4 4 4 4 3 2 1 1 1 1 2 1 2 3 4 4 4 5 5 5 5 5
7 8 9 11 13 13 11 11 10 9 7 5 4 2 1 2 3 4 4 5 5 4 3 3 3 3 2 1 1 0 0 1 1 2 3 4 4 5 5 5 5 5 5
6 8 9 11 12 12 12 11 10 10 8 6 5 3 2 2 3 3 4 4 4 4 3 3 3 2 2 1 0 0 0 1 1 2 4 4 5 5 6 6 6 6 5
6 8 8 10 12 13 13 12 11 11 9 8 6 5 3 2 2 3 3 4 4 3 3 3 3 2 2 1 0 0 1 2 2 3 4 4 5 6 6 6 6 6 6
6 7 8 10 11 13 14 13 12 12 11 9 8 6 4 3 3 3 3 3 3 3 3 2 3 2 2 1 1 0 1 2 3 3 4 4 5 6 6 6 6 7 7
6 8 8 9 10 12 14 14 14 13 12 11 9 7 6 4 3 3 3 3 3 3 2 2 2 2 2 1 1 1 1 2 2 3 4 5 5 6 6 6 7 7 7
7 7 9 10 11 12 13 14 15 14 14 13 11 9 7 5 4 4 4 3 3 2 2 2 2 2 2 1 2 1 2 2 3 3 3 4 5 5 6 6 7 7 8
7 8 10 11 13 14 14 14 15 15 15 14 12 10 8 6 5 5 4 3 2 2 2 1 1 1 2 2 2 2 2 3 3 3 3 4 4 5 6 6 7 8 8
7 8 10 12 13 14 15 16 18 17 16 15 13 11 9 8 6 5 4 3 2 2 1 1 1 2 2 1 2 2 3 3 3 3 3 4 4 5 5 6 7 7 8
8 7 8 11 13 14 15 16 18 19 18 16 14 12 11 9 7 5 4 3 3 3 2 2 2 2 1 2 2 2 3 3 3 3 4 4 4 5 5 6 7 7 8
9 6 7 8 11 13 15 17 18 18 17 16 15 14 12 10 8 6 5 5 4 4 3 2 2 2 2 2 2 2 2 2 2 3 3 4 4 5 5 6 7 7 8
9 6 7 8 11 14 16 17 18 18 17 16 16 15 13 12 10 8 7 6 5 5 4 3 3 3 2 2 2 2 2 2 2 2 2 3 4 4 4 5 5 6 7
9 7 7 9 12 14 14 16 17 17 16 17 16 15 14 13 12 10 8 7 6 6 5 4 4 4 3 3 2 2 2 2 2 2 2 2 3 4 4 4 4 4 5
9 7 7 8 12 14 15 15 16 16 16 17 16 16 15 15 13 11 10 8 7 7 6 5 5 4 4 3 3 3 3 2 1 2 2 2 2 3 3 4 4 4 4
9 8 8 8 10 13 14 15 17 17 17 18 18 17 16 16 14 13 12 10 9 8 7 7 6 5 5 4 4 4 3 2 2 2 2 2 1 1 2 3 3 4 5
10 7 7 6 8 11 13 14 15 16 17 17 17 17 17 16 15 14 13 12 10 10 9 8 7 7 6 5 5 4 4 3 2 2 1 1 1 2 2 3 4 4 4
10 7 6 5 7 8 10 13 13 15 16 18 18 18 18 17 17 15 14 13 12 12 11 10 9 8 8 7 6 6 5 4 4 3 3 3 3 4 4 4 5 6 6
9 7 5 3 6 7 9 10 12 14 17 18 18 18 18 18 17 17 15 15 14 14 13 12 11 10 10 9 8 8 8 7 7 6 6 6 6 6 6 7 7 8 9
9 6 3 3 5 5 7 9 11 12 15 17 18 17 18 18 18 17 17 16 16 15 14 13 13 13 12 12 11 11 10 10 10 10 10 10 10 10 10 10 11 11 12
Wind_Direction
177 176 182 189 183 176 160 146 131 119 107 95 80 66 56 51 47 41 37 34 31 28 28 34 36 36 38 40 45 49 52 63 77 86 96 104 111 117 120 121 117 117 121
192 193 199 204 204 193 176 161 145 131 116 100 84 70 59 52 47 40 33 30 26 27 29 30 30 32 36 37 40 42 47 64 82 95 105 111 115 120 122 122 124 126 126
217 210 210 213 205 198 187 175 158 145 128 107 87 71 59 51 44 36 30 25 22 24 26 27 27 28 34 37 39 41 52 75 92 103 111 119 123 128 130 129 130 133 132
221 212 211 213 207 203 196 186 171 157 139 114 89 70 56 46 37 28 24 19 18 21 21 21 22 26 33 36 37 44 64 87 108 117 121 130 133 137 138 137 137 137 138
222 213 213 212 209 205 202 196 184 173 157 129 97 74 53 38 25 19 16 14 16 18 18 18 19 22 29 34 40 53 74 87 99 116 121 140 147 147 147 145 143 143 143
230 214 210 208 206 206 206 202 194 186 177 159 123 78 45 28 19 13 10 11 13 14 15 13 13 18 28 35 43 66 85 91 102 116 126 148 158 156 154 153 154 154 153
241 222 211 209 207 206 206 205 201 199 193 184 167 110 35 20 14 6 4 8 10 11 11 7 8 13 21 32 41 74 102 112 113 126 141 150 163 169 168 167 167 165 161
251 232 220 214 210 209 208 207 207 206 200 196 192 197 6 2 1 1 1 2 1 3 4 358 2 6 7 23 37 76 127 134 148 153 159 156 167 175 183 181 179 179 176
262 236 223 214 209 208 210 210 209 208 205 205 208 218 269 334 348 353 354 350 351 355 353 350 355 353 356 20 39 80 139 158 170 178 177 175 182 187 190 193 191 190 188
260 236 224 214 209 206 209 212 210 208 207 209 215 223 248 303 333 342 343 342 344 344 343 344 344 342 345 354 312 251 216 208 190 181 191 191 191 190 192 194 193 195 198
258 236 226 214 209 207 206 209 209 208 208 211 215 222 238 271 308 326 333 336 335 335 338 339 335 328 329 322 268 254 238 226 188 178 184 189 191 191 193 197 202 205 204
264 232 224 217 212 210 206 207 209 209 209 212 214 219 231 255 282 301 315 324 321 322 326 325 317 312 308 298 257 218 200 190 190 187 188 188 192 198 201 203 210 213 213
266 239 227 215 209 210 210 210 209 209 210 212 214 218 226 242 266 281 297 308 306 310 309 303 296 281 278 251 195 178 170 184 191 190 198 199 203 205 209 214 216 219 222
279 246 227 218 214 214 214 214 211 210 210 211 213 217 225 238 255 265 283 293 293 297 301 295 274 251 243 203 178 191 198 198 188 192 197 199 206 209 214 220 222 222 224
292 249 235 227 223 219 217 216 211 211 211 211 213 217 226 235 246 254 267 272 277 292 302 287 252 221 210 188 191 207 198 196 195 199 197 198 207 211 214 221 223 224 225
305 261 239 226 222 219 213 211 209 211 211 211 215 219 226 231 239 240 242 246 258 275 279 241 194 201 212 206 196 202 196 196 201 205 210 208 209 215 220 224 225 227 230
310 274 247 228 223 221 214 211 209 209 211 213 216 219 223 226 229 230 231 233 245 252 240 215 202 201 195 175 165 171 186 202 208 213 213 218 219 221 226 227 227 231 234
316 283 243 227 222 219 216 210 207 208 211 214 216 218 220 222 226 227 230 234 238 237 228 211 200 183 173 171 168 165 174 197 207 209 211 218 220 225 232 231 228 230 233
325 295 252 232 218 216 210 209 209 211 212 214 215 217 217 219 222 224 230 231 231 229 220 210 196 188 184 171 157 150 145 158 180 190 200 216 225 231 235 237 232 230 233
320 303 271 242 221 213 208 209 213 212 210 211 213 216 218 218 220 222 224 225 228 225 218 214 209 206 194 174 167 162 155 146 166 176 189 216 228 233 234 232 234 233 237
320 301 283 244 217 211 209 212 209 207 204 208 213 215 217 217 217 217 219 221 223 224 222 221 215 206 194 185 182 178 173 163 172 179 187 200 206 222 233 236 240 243 247
320 298 275 249 219 210 208 210 208 208 207 209 213 214 213 214 217 217 219 219 220 222 218 215 213 208 200 193 194 193 184 172 154 152 153 156 166 191 227 242 246 251 254
322 299 268 239 218 209 208 208 209 213 215 211 213 214 214 213 215 219 221 218 218 219 217 213 212 208 204 204 202 199 196 192 178 174 186 200 223 238 247 249 257 258 260
317 300 275 248 216 208 206 208 212 216 216 215 216 216 216 215 216 220 223 221 221 222 219 218 217 216 216 215 212 215 220 225 228 235 249 253 255 260 264 262 263 263 265
318 304 283 244 221 214 213 211 213 214 214 215 217 218 218 216 217 220 222 224 225 226 224 223 223 223 223 224 226 231 235 241 245 252 260 264 266 268 270 270 270 271 271
326 315 285 255 226 221 218 213 212 212 213 214 218 221 220 219 219 220 222 225 227 229 229 229 230 230 231 232 236 241 246 250 253 257 262 266 269 270 272 273 272 273 272
Height
5871 5871 5873 5874 5875 5876 5877 5878 5880 5881 5882 5884 5885 5886 5887 5887 5888 5889 5889 5890 5890 5890 5890 5889 5889 5889 5889 5889 5889 5889 5889 5889 5889 5889 5890 5890 5890 5891 5892 5893 5894 5895 5896
5871 5872 5873 5874 5875 5876 5877 5878 5880 5881 5882 5884 5885 5886 5887 5888 5889 5889 5890 5890 5890 5890 5890 5890 5889 5889 5889 5889 5889 5889 5889 5889 5890 5890 5890 5891 5891 5892 5893 5894 5895 5896 5897
5871 5871 5873 5874 5875 5876 5877 5879 5880 5881 5883 5884 5885 5886 5887 5888 5889 5889 5890 5890 5890 5890 5890 5890 5889 5889 5889 5889 5889 5889 5889 5890 5890 5890 5891 5891 5892 5893 5894 5895 5896 5897 5898
5870 5871 5872 5874 5875 5876 5877 5879 5880 5881 5882 5884 5885 5886 5887 5888 5889 5889 5890 5890 5890 5890 5890 5890 5890 5889 5889 5889 5889 5889 5889 5890 5890 5891 5891 5892 5893 5893 5894 5895 5897 5898 5899
5869 5870 5871 5873 5874 5876 5877 5878 5880 5881 5882 5884 5885 5886 5887 5887 5888 5889 5889 5890 5890 5890 5890 5890 5890 5890 5890 5890 5890 5890 5890 5890 5891 5891 5892 5893 5893 5894 5895 5896 5897 5898 5899
5868 5869 5870 5872 5873 5875 5876 5878 5879 5881 5882 5883 5884 5885 5886 5887 5888 5888 5889 5889 5889 5889 5889 5890 5890 5890 5890 5890 5890 5890 5890 5890 5891 5892 5892 5893 5894 5895 5896 5897 5898 5899 5900
5867 5868 5869 5870 5872 5873 5875 5877 5878 5880 5881 5883 5884 5885 5886 5887 5887 5888 5889 5889 5889 5889 5889 5889 5889 5889 5890 5890 5890 5890 5890 5891 5891 5892 5893 5893 5894 5895 5896 5897 5898 5899 5900
5866 5866 5867 5868 5870 5872 5873 5875 5877 5879 5881 5882 5884 5885 5885 5886 5887 5888 5888 5888 5889 5889 5889 5889 5889 5889 5890 5890 5890 5890 5890 5890 5891 5892 5893 5893 5894 5895 5896 5897 5898 5899 5900
5864 5864 5865 5866 5868 5870 5872 5874 5876 5878 5880 5882 5883 5884 5885 5886 5887 5887 5887 5888 5888 5888 5889 5889 5889 5889 5889 5889 5890 5890 5890 5890 5891 5892 5892 5893 5894 5895 5896 5897 5898 5899 5900
5861 5862 5863 5864 5866 5868 5870 5873 5875 5877 5879 5881 5882 5884 5885 5885 5886 5887 5887 5888 5888 5888 5888 5889 5889 5889 5889 5889 5889 5889 5889 5890 5890 5891 5892 5893 5894 5895 5896 5897 5898 5899 5900
5859 5860 5861 5862 5864 5866 5868 5871 5873 5875 5878 5880 5881 5883 5884 5885 5886 5886 5887 5887 5888 5888 5888 5888 5888 5888 5888 5889 5889 5889 5889 5889 5890 5891 5891 5892 5893 5894 5895 5897 5898 5899 5900
5857 5858 5859 5861 5863 5864 5866 5869 5871 5874 5876 5878 5880 5882 5883 5884 5885 5886 5886 5887 5887 5888 5888 5888 5888 5888 5888 5888 5888 5889 5889 5889 5889 5890 5891 5892 5893 5894 5895 5896 5897 5898 5899
5856 5856 5857 5859 5861 5863 5865 5867 5869 5872 5875 5877 5879 5881 5882 5884 5885 5885 5886 5887 5887 5887 5887 5887 5887 5887 5888 5888 5888 5888 5889 5889 5889 5890 5891 5892 5892 5893 5894 5895 5897 5898 5899
5854 5855 5856 5857 5859 5861 5863 5865 5867 5870 5873 5875 5878 5879 5881 5883 5884 5885 5885 5886 5886 5887 5887 5887 5887 5887 5887 5887 5888 5888 5889 5889 5889 5890 5890 5891 5892 5893 5894 5895 5896 5897 5898
5852 5853 5853 5855 5857 5859 5861 5863 5866 5868 5871 5874 5876 5878 5880 5881 5883 5884 5884 5885 5886 5886 5886 5886 5887 5887 5887 5887 5888 5888 5888 5889 5889 5890 5890 5891 5892 5893 5893 5894 5895 5896 5897
5850 5850 5851 5852 5853 5856 5858 5861 5863 5866 5869 5872 5874 5877 5878 5880 5882 5883 5883 5884 5885 5886 5886 5886 5886 5886 5886 5887 5887 5888 5888 5889 5889 5890 5890 5891 5891 5892 5893 5894 5894 5895 5896
5848 5847 5848 5849 5851 5853 5856 5858 5861 5864 5867 5870 5872 5875 5877 5879 5880 5881 5882 5883 5884 5885 5885 5886 5886 5886 5886 5887 5887 5887 5888 5888 5889 5889 5890 5890 5891 5892 5893 5893 5894 5894 5895
5846 5845 5846 5847 5848 5850 5853 5856 5859 5862 5865 5868 5870 5873 5875 5877 5879 5880 5881 5883 5883 5884 5885 5886 5886 5886 5887 5887 5887 5887 5887 5888 5888 5889 5890 5890 5891 5892 5892 5892 5893 5893 5894
5845 5844 5844 5845 5846 5848 5850 5853 5856 5859 5862 5865 5868 5871 5873 5875 5877 5879 5880 5882 5883 5884 5884 5885 5886 5886 5886 5887 5887 5887 5887 5888 5888 5889 5890 5890 5891 5891 5892 5892 5892 5892 5893
5844 5843 5842 5842 5843 5845 5848 5851 5854 5857 5860 5863 5866 5869 5871 5873 5875 5877 5879 5881 5882 5883 5884 5885 5885 5886 5886 5887 5887 5887 5888 5888 5888 5889 5889 5890 5890 5891 5891 5891 5892 5892 5892
5843 5841 5840 5840 5841 5842 5845 5849 5852 5855 5858 5861 5864 5867 5869 5872 5874 5876 5878 5879 5881 5882 5883 5884 5885 5885 5886 5886 5887 5887 5888 5888 5888 5889 5889 5889 5890 5890 5890 5891 5891 5891 5891
5841 5839 5838 5837 5838 5840 5844 5847 5850 5853 5855 5859 5862 5864 5867 5870 5872 5874 5876 5878 5879 5881 5882 5883 5884 5885 5885 5886 5887 5887 5888 5889 5888 5889 5889 5889 5889 5889 5890 5890 5890 5891 5891
5841 5839 5837 5837 5838 5839 5842 5844 5847 5850 5853 5856 5859 5863 5865 5867 5870 5872 5874 5876 5878 5879 5880 5882 5883 5884 5885 5885 5886 5887 5888 5888 5888 5889 5889 5889 5889 5889 5889 5889 5890 5890 5890
5839 5838 5837 5836 5837 5838 5840 5842 5845 5848 5851 5854 5857 5860 5863 5865 5868 5870 5872 5874 5876 5878 5879 5880 5882 5883 5884 5885 5886 5886 5887 5888 5888 5888 5889 5889 5889 5889 5889 5889 5889 5889 5888
5838 5836 5836 5835 5836 5837 5839 5840 5843 5846 5849 5852 5855 5858 5860 5863 5865 5867 5870 5872 5874 5876 5877 5879 5880 5882 5883 5884 5884 5885 5886 5887 5887 5888 5888 5888 5888 5888 5887 5887 5887 5887 5887
5837 5836 5835 5835 5836 5836 5837 5839 5841 5843 5847 5849 5852 5855 5857 5860 5863 5865 5867 5870 5872 5874 5875 5877 5878 5880 5881 5882 5883 5884 5885 5885 5885 5886 5886 5886 5886 5886 5885 5885 5885 5884 5884